owner,sensor,date,latitude,longitude,vertical_datum,wind_speed,wind_to_direction,wind_speed_of_gust,qcFlag 
DISL,ioos:station:DISL:DISL:1,2012-07-01T00:00:00Z,30.2513,-88.0778,9.68,2.29,244.5,-9999.0,'1111122,1111122,1111122' 
DISL,ioos:station:DISL:DISL:1,2012-07-01T00:30:00Z,30.2513,-88.0778,9.68,2.03,244.2,-9999.0,'1111122,1111122,1111122' 
DISL,ioos:station:DISL:DISL:1,2012-07-01T01:00:00Z,30.2513,-88.0778,9.68,2.07,247.6,-9999.0,'1111122,1111122,1111122' 
DISL,ioos:station:DISL:DISL:1,2012-07-01T01:30:00Z,30.2513,-88.0778,9.68,1.83,252.0,-9999.0,'1111122,1111122,1111122' 
DISL,ioos:station:DISL:DISL:1,2012-07-01T02:00:00Z,30.2513,-88.0778,9.68,2.18,236.7,-9999.0,'1111122,1111122,1111122' 
DISL,ioos:station:DISL:DISL:1,2012-07-01T02:30:00Z,30.2513,-88.0778,9.68,2.18,232.8,-9999.0,'1111122,1111122,1111122' 
DISL,ioos:station:DISL:DISL:1,2012-07-01T03:00:00Z,30.2513,-88.0778,9.68,2.1,237.3,-9999.0,'1111122,1111122,1111122' 
DISL,ioos:station:DISL:DISL:1,2012-07-01T03:30:00Z,30.2513,-88.0778,9.68,2.09,225.2,-9999.0,'1111122,1111122,1111122' 
DISL,ioos:station:DISL:DISL:1,2012-07-01T04:00:00Z,30.2513,-88.0778,9.68,2.56,227.0,-9999.0,'1111122,1111122,1111122' 
DISL,ioos:station:DISL:DISL:1,2012-07-01T04:30:00Z,30.2513,-88.0778,9.68,2.59,225.7,-9999.0,'1111122,1111122,1111122' 
DISL,ioos:station:DISL:DISL:1,2012-07-01T05:00:00Z,30.2513,-88.0778,9.68,3.42,225.3,-9999.0,'1111122,1111122,1111122' 
DISL,ioos:station:DISL:DISL:1,2012-07-01T05:30:00Z,30.2513,-88.0778,9.68,2.88,211.5,-9999.0,'1111122,1111122,1111122' 
DISL,ioos:station:DISL:DISL:1,2012-07-01T06:00:00Z,30.2513,-88.0778,9.68,2.87,218.1,-9999.0,'1111122,1111122,1111122' 
DISL,ioos:station:DISL:DISL:1,2012-07-01T06:30:00Z,30.2513,-88.0778,9.68,2.21,238.5,-9999.0,'1111122,1111122,1111122' 
DISL,ioos:station:DISL:DISL:1,2012-07-01T07:00:00Z,30.2513,-88.0778,9.68,2.34,234.1,-9999.0,'1111122,1111122,1111122' 
DISL,ioos:station:DISL:DISL:1,2012-07-01T07:30:00Z,30.2513,-88.0778,9.68,2.19,233.0,-9999.0,'1111122,1111122,1111122' 
DISL,ioos:station:DISL:DISL:1,2012-07-01T08:00:00Z,30.2513,-88.0778,9.68,2.44,225.1,-9999.0,'1111122,1111122,1111122' 
DISL,ioos:station:DISL:DISL:1,2012-07-01T08:30:00Z,30.2513,-88.0778,9.68,2.47,241.2,-9999.0,'1111122,1111122,1111122' 
DISL,ioos:station:DISL:DISL:1,2012-07-01T09:00:00Z,30.2513,-88.0778,9.68,2.02,239.4,-9999.0,'1111122,1111122,1111122' 
DISL,ioos:station:DISL:DISL:1,2012-07-01T09:30:00Z,30.2513,-88.0778,9.68,1.48,257.3,-9999.0,'1111122,1111122,1111122' 
DISL,ioos:station:DISL:DISL:1,2012-07-01T10:00:00Z,30.2513,-88.0778,9.68,1.68,251.5,-9999.0,'1111122,1111122,1111122' 
DISL,ioos:station:DISL:DISL:1,2012-07-01T10:30:00Z,30.2513,-88.0778,9.68,1.59,253.8,-9999.0,'1111122,1111122,1111122' 
DISL,ioos:station:DISL:DISL:1,2012-07-01T11:00:00Z,30.2513,-88.0778,9.68,1.72,248.8,-9999.0,'1111122,1111122,1111122' 
DISL,ioos:station:DISL:DISL:1,2012-07-01T11:30:00Z,30.2513,-88.0778,9.68,1.75,253.8,-9999.0,'1111122,1111122,1111122' 
DISL,ioos:station:DISL:DISL:1,2012-07-01T12:00:00Z,30.2513,-88.0778,9.68,3.17,299.8,-9999.0,'1111122,1111122,1111122' 
DISL,ioos:station:DISL:DISL:1,2012-07-01T12:30:00Z,30.2513,-88.0778,9.68,3.16,300.4,-9999.0,'1111122,1111122,1111122' 
DISL,ioos:station:DISL:DISL:1,2012-07-01T13:00:00Z,30.2513,-88.0778,9.68,3.65,314.5,-9999.0,'1111122,1111122,1111122' 
DISL,ioos:station:DISL:DISL:1,2012-07-01T13:30:00Z,30.2513,-88.0778,9.68,3.5,298.5,-9999.0,'1111122,1111122,1111122' 
DISL,ioos:station:DISL:DISL:1,2012-07-01T14:00:00Z,30.2513,-88.0778,9.68,3.32,295.3,-9999.0,'1111122,1111122,1111122' 
DISL,ioos:station:DISL:DISL:1,2012-07-01T14:30:00Z,30.2513,-88.0778,9.68,3.78,298.6,-9999.0,'1111122,1111122,1111122' 
DISL,ioos:station:DISL:DISL:1,2012-07-01T15:00:00Z,30.2513,-88.0778,9.68,3.81,295.8,-9999.0,'1111122,1111122,1111122' 
DISL,ioos:station:DISL:DISL:1,2012-07-01T15:30:00Z,30.2513,-88.0778,9.68,3.7,288.3,-9999.0,'1111122,1111122,1111122' 
DISL,ioos:station:DISL:DISL:1,2012-07-01T16:00:00Z,30.2513,-88.0778,9.68,3.48,289.4,-9999.0,'1111122,1111122,1111122' 
DISL,ioos:station:DISL:DISL:1,2012-07-01T16:30:00Z,30.2513,-88.0778,9.68,2.99,288.1,-9999.0,'1111122,1111122,1111122' 
DISL,ioos:station:DISL:DISL:1,2012-07-01T17:00:00Z,30.2513,-88.0778,9.68,2.97,289.6,-9999.0,'1111122,1111122,1111122' 
DISL,ioos:station:DISL:DISL:1,2012-07-01T17:30:00Z,30.2513,-88.0778,9.68,3.7,294.1,-9999.0,'1111122,1111122,1111122' 
DISL,ioos:station:DISL:DISL:1,2012-07-01T18:00:00Z,30.2513,-88.0778,9.68,3.59,286.2,-9999.0,'1111122,1111122,1111122' 
DISL,ioos:station:DISL:DISL:1,2012-07-01T18:30:00Z,30.2513,-88.0778,9.68,3.59,231.1,-9999.0,'1111122,1111122,1111122' 
DISL,ioos:station:DISL:DISL:1,2012-07-01T19:00:00Z,30.2513,-88.0778,9.68,2.24,246.7,-9999.0,'1111122,1111122,1111122' 
DISL,ioos:station:DISL:DISL:1,2012-07-01T19:30:00Z,30.2513,-88.0778,9.68,3.1,207.3,-9999.0,'1111122,1111122,1111122' 
DISL,ioos:station:DISL:DISL:1,2012-07-01T20:00:00Z,30.2513,-88.0778,9.68,3.76,225.8,-9999.0,'1111122,1111122,1111122' 
DISL,ioos:station:DISL:DISL:1,2012-07-01T20:30:00Z,30.2513,-88.0778,9.68,3.81,227.8,-9999.0,'1111122,1111122,1111122' 
DISL,ioos:station:DISL:DISL:1,2012-07-01T21:00:00Z,30.2513,-88.0778,9.68,3.46,210.0,-9999.0,'1111122,1111122,1111122' 
DISL,ioos:station:DISL:DISL:1,2012-07-01T21:30:00Z,30.2513,-88.0778,9.68,3.75,232.4,-9999.0,'1111122,1111122,1111122' 
DISL,ioos:station:DISL:DISL:1,2012-07-01T22:00:00Z,30.2513,-88.0778,9.68,3.56,212.9,-9999.0,'1111122,1111122,1111122' 
DISL,ioos:station:DISL:DISL:1,2012-07-01T22:30:00Z,30.2513,-88.0778,9.68,3.85,218.4,-9999.0,'1111122,1111122,1111122' 
DISL,ioos:station:DISL:DISL:1,2012-07-01T23:00:00Z,30.2513,-88.0778,9.68,3.45,225.2,-9999.0,'1111122,1111122,1111122' 
DISL,ioos:station:DISL:DISL:1,2012-07-01T23:30:00Z,30.2513,-88.0778,9.68,3.18,216.5,-9999.0,'1111122,1111122,1111122' 
DISL,ioos:station:DISL:DISL:1,2012-07-02T00:00:00Z,30.2513,-88.0778,9.68,3.18,236.4,-9999.0,'1111122,1111122,1111122' 
DISL,ioos:station:DISL:DISL:1,2012-07-02T00:30:00Z,30.2513,-88.0778,9.68,2.84,229.6,-9999.0,'1111122,1111122,1111122' 
DISL,ioos:station:DISL:DISL:1,2012-07-02T01:00:00Z,30.2513,-88.0778,9.68,3.37,244.7,-9999.0,'1111122,1111122,1111122' 
DISL,ioos:station:DISL:DISL:1,2012-07-02T01:30:00Z,30.2513,-88.0778,9.68,3.12,237.8,-9999.0,'1111122,1111122,1111122' 
DISL,ioos:station:DISL:DISL:1,2012-07-02T02:00:00Z,30.2513,-88.0778,9.68,2.46,238.3,-9999.0,'1111122,1111122,1111122' 
DISL,ioos:station:DISL:DISL:1,2012-07-02T02:30:00Z,30.2513,-88.0778,9.68,2.99,244.8,-9999.0,'1111122,1111122,1111122' 
DISL,ioos:station:DISL:DISL:1,2012-07-02T03:00:00Z,30.2513,-88.0778,9.68,2.26,254.4,-9999.0,'1111122,1111122,1111122' 
DISL,ioos:station:DISL:DISL:1,2012-07-02T03:30:00Z,30.2513,-88.0778,9.68,2.81,258.2,-9999.0,'1111122,1111122,1111122' 
DISL,ioos:station:DISL:DISL:1,2012-07-02T04:00:00Z,30.2513,-88.0778,9.68,2.87,249.2,-9999.0,'1111122,1111122,1111122' 
DISL,ioos:station:DISL:DISL:1,2012-07-02T04:30:00Z,30.2513,-88.0778,9.68,2.85,255.4,-9999.0,'1111122,1111122,1111122' 
DISL,ioos:station:DISL:DISL:1,2012-07-02T05:00:00Z,30.2513,-88.0778,9.68,2.82,257.5,-9999.0,'1111122,1111122,1111122' 
DISL,ioos:station:DISL:DISL:1,2012-07-02T05:30:00Z,30.2513,-88.0778,9.68,2.78,252.4,-9999.0,'1111122,1111122,1111122' 
DISL,ioos:station:DISL:DISL:1,2012-07-02T06:00:00Z,30.2513,-88.0778,9.68,2.6,257.7,-9999.0,'1111122,1111122,1111122' 
DISL,ioos:station:DISL:DISL:1,2012-07-02T06:30:00Z,30.2513,-88.0778,9.68,2.57,260.7,-9999.0,'1111122,1111122,1111122' 
DISL,ioos:station:DISL:DISL:1,2012-07-02T07:00:00Z,30.2513,-88.0778,9.68,2.5,251.2,-9999.0,'1111122,1111122,1111122' 
DISL,ioos:station:DISL:DISL:1,2012-07-02T07:30:00Z,30.2513,-88.0778,9.68,2.16,259.3,-9999.0,'1111122,1111122,1111122' 
DISL,ioos:station:DISL:DISL:1,2012-07-02T08:00:00Z,30.2513,-88.0778,9.68,2.44,254.5,-9999.0,'1111122,1111122,1111122' 
DISL,ioos:station:DISL:DISL:1,2012-07-02T08:30:00Z,30.2513,-88.0778,9.68,2.71,257.4,-9999.0,'1111122,1111122,1111122' 
DISL,ioos:station:DISL:DISL:1,2012-07-02T09:00:00Z,30.2513,-88.0778,9.68,2.46,254.6,-9999.0,'1111122,1111122,1111122' 
DISL,ioos:station:DISL:DISL:1,2012-07-02T09:30:00Z,30.2513,-88.0778,9.68,2.0,262.2,-9999.0,'1111122,1111122,1111122' 
DISL,ioos:station:DISL:DISL:1,2012-07-02T10:00:00Z,30.2513,-88.0778,9.68,3.36,279.4,-9999.0,'1111122,1111122,1111122' 
DISL,ioos:station:DISL:DISL:1,2012-07-02T10:30:00Z,30.2513,-88.0778,9.68,3.09,277.5,-9999.0,'1111122,1111122,1111122' 
DISL,ioos:station:DISL:DISL:1,2012-07-02T11:00:00Z,30.2513,-88.0778,9.68,4.71,289.0,-9999.0,'1111122,1111122,1111122' 
DISL,ioos:station:DISL:DISL:1,2012-07-02T11:30:00Z,30.2513,-88.0778,9.68,3.45,283.8,-9999.0,'1111122,1111122,1111122' 
DISL,ioos:station:DISL:DISL:1,2012-07-02T12:00:00Z,30.2513,-88.0778,9.68,3.86,329.5,-9999.0,'1111122,1111122,1111122' 
DISL,ioos:station:DISL:DISL:1,2012-07-02T12:30:00Z,30.2513,-88.0778,9.68,3.47,19.28,-9999.0,'1111122,1111122,1111122' 
DISL,ioos:station:DISL:DISL:1,2012-07-02T13:00:00Z,30.2513,-88.0778,9.68,7.4,107.7,-9999.0,'1111122,1111122,1111122' 
DISL,ioos:station:DISL:DISL:1,2012-07-02T13:30:00Z,30.2513,-88.0778,9.68,2.58,152.9,-9999.0,'1111122,1111122,1111122' 
DISL,ioos:station:DISL:DISL:1,2012-07-02T14:00:00Z,30.2513,-88.0778,9.68,2.08,169.2,-9999.0,'1111122,1111122,1111122' 
DISL,ioos:station:DISL:DISL:1,2012-07-02T14:30:00Z,30.2513,-88.0778,9.68,2.19,211.3,-9999.0,'1111122,1111122,1111122' 
DISL,ioos:station:DISL:DISL:1,2012-07-02T15:00:00Z,30.2513,-88.0778,9.68,2.21,229.4,-9999.0,'1111122,1111122,1111122' 
DISL,ioos:station:DISL:DISL:1,2012-07-02T15:30:00Z,30.2513,-88.0778,9.68,2.24,209.4,-9999.0,'1111122,1111122,1111122' 
DISL,ioos:station:DISL:DISL:1,2012-07-02T16:00:00Z,30.2513,-88.0778,9.68,2.34,185.4,-9999.0,'1111122,1111122,1111122' 
DISL,ioos:station:DISL:DISL:1,2012-07-02T16:30:00Z,30.2513,-88.0778,9.68,1.72,202.2,-9999.0,'1111122,1111122,1111122' 
DISL,ioos:station:DISL:DISL:1,2012-07-02T17:00:00Z,30.2513,-88.0778,9.68,2.02,273.8,-9999.0,'1111122,1111122,1111122' 
DISL,ioos:station:DISL:DISL:1,2012-07-02T17:30:00Z,30.2513,-88.0778,9.68,3.78,311.6,-9999.0,'1111122,1111122,1111122' 
DISL,ioos:station:DISL:DISL:1,2012-07-02T18:00:00Z,30.2513,-88.0778,9.68,2.33,300.0,-9999.0,'1111122,1111122,1111122' 
DISL,ioos:station:DISL:DISL:1,2012-07-02T18:30:00Z,30.2513,-88.0778,9.68,1.03,12.73,-9999.0,'1111122,1111122,1111122' 
DISL,ioos:station:DISL:DISL:1,2012-07-02T19:00:00Z,30.2513,-88.0778,9.68,3.33,216.4,-9999.0,'1111122,1111122,1111122' 
DISL,ioos:station:DISL:DISL:1,2012-07-02T19:30:00Z,30.2513,-88.0778,9.68,1.92,204.7,-9999.0,'1111122,1111122,1111122' 
DISL,ioos:station:DISL:DISL:1,2012-07-02T20:00:00Z,30.2513,-88.0778,9.68,2.56,194.3,-9999.0,'1111122,1111122,1111122' 
DISL,ioos:station:DISL:DISL:1,2012-07-02T20:30:00Z,30.2513,-88.0778,9.68,3.57,205.8,-9999.0,'1111122,1111122,1111122' 
DISL,ioos:station:DISL:DISL:1,2012-07-02T21:00:00Z,30.2513,-88.0778,9.68,2.76,193.5,-9999.0,'1111122,1111122,1111122' 
DISL,ioos:station:DISL:DISL:1,2012-07-02T21:30:00Z,30.2513,-88.0778,9.68,6.89,62.06,-9999.0,'1111122,1111122,1111122' 
DISL,ioos:station:DISL:DISL:1,2012-07-02T22:00:00Z,30.2513,-88.0778,9.68,8.47,37.6,-9999.0,'1111122,1111122,1111122' 
DISL,ioos:station:DISL:DISL:1,2012-07-02T22:30:00Z,30.2513,-88.0778,9.68,9.4,297.4,-9999.0,'1111122,1111122,1111122' 
DISL,ioos:station:DISL:DISL:1,2012-07-02T23:00:00Z,30.2513,-88.0778,9.68,3.36,294.9,-9999.0,'1111122,1111122,1111122' 
DISL,ioos:station:DISL:DISL:1,2012-07-02T23:30:00Z,30.2513,-88.0778,9.68,1.43,288.6,-9999.0,'1111122,1111122,1111122' 
DISL,ioos:station:DISL:DISL:1,2012-07-03T00:00:00Z,30.2513,-88.0778,9.68,2.1,355.1,-9999.0,'1111122,1111122,1111122' 
DISL,ioos:station:DISL:DISL:1,2012-07-03T00:30:00Z,30.2513,-88.0778,9.68,3.27,67.47,-9999.0,'1111122,1111122,1111122' 
DISL,ioos:station:DISL:DISL:1,2012-07-03T01:00:00Z,30.2513,-88.0778,9.68,3.8,108.4,-9999.0,'1111122,1111122,1111122' 
DISL,ioos:station:DISL:DISL:1,2012-07-03T01:30:00Z,30.2513,-88.0778,9.68,2.5,213.1,-9999.0,'1111122,1111122,1111122' 
DISL,ioos:station:DISL:DISL:1,2012-07-03T02:00:00Z,30.2513,-88.0778,9.68,1.12,296.5,-9999.0,'1111122,1111122,1111122' 
DISL,ioos:station:DISL:DISL:1,2012-07-03T02:30:00Z,30.2513,-88.0778,9.68,0.89,194.1,-9999.0,'1111122,1111122,1111122' 
DISL,ioos:station:DISL:DISL:1,2012-07-03T03:00:00Z,30.2513,-88.0778,9.68,0.75,266.5,-9999.0,'1111122,1111122,1111122' 
DISL,ioos:station:DISL:DISL:1,2012-07-03T03:30:00Z,30.2513,-88.0778,9.68,0.65,275.0,-9999.0,'1111122,1111122,1111122' 
DISL,ioos:station:DISL:DISL:1,2012-07-03T04:00:00Z,30.2513,-88.0778,9.68,0.96,206.4,-9999.0,'1111122,1111122,1111122' 
DISL,ioos:station:DISL:DISL:1,2012-07-03T04:30:00Z,30.2513,-88.0778,9.68,0.98,223.1,-9999.0,'1111122,1111122,1111122' 
DISL,ioos:station:DISL:DISL:1,2012-07-03T05:00:00Z,30.2513,-88.0778,9.68,2.19,168.0,-9999.0,'1111122,1111122,1111122' 
DISL,ioos:station:DISL:DISL:1,2012-07-03T05:30:00Z,30.2513,-88.0778,9.68,2.15,144.4,-9999.0,'1111122,1111122,1111122' 
DISL,ioos:station:DISL:DISL:1,2012-07-03T06:00:00Z,30.2513,-88.0778,9.68,1.27,156.2,-9999.0,'1111122,1111122,1111122' 
DISL,ioos:station:DISL:DISL:1,2012-07-03T06:30:00Z,30.2513,-88.0778,9.68,1.61,156.4,-9999.0,'1111122,1111122,1111122' 
DISL,ioos:station:DISL:DISL:1,2012-07-03T07:00:00Z,30.2513,-88.0778,9.68,0.88,178.5,-9999.0,'1111122,1111122,1111122' 
DISL,ioos:station:DISL:DISL:1,2012-07-03T07:30:00Z,30.2513,-88.0778,9.68,0.76,157.8,-9999.0,'1111122,1111122,1111122' 
DISL,ioos:station:DISL:DISL:1,2012-07-03T08:00:00Z,30.2513,-88.0778,9.68,0.56,127.5,-9999.0,'1111122,1111122,1111122' 
DISL,ioos:station:DISL:DISL:1,2012-07-03T08:30:00Z,30.2513,-88.0778,9.68,1.26,144.2,-9999.0,'1111122,1111122,1111122' 
DISL,ioos:station:DISL:DISL:1,2012-07-03T09:00:00Z,30.2513,-88.0778,9.68,0.84,142.9,-9999.0,'1111122,1111122,1111122' 
DISL,ioos:station:DISL:DISL:1,2012-07-03T09:30:00Z,30.2513,-88.0778,9.68,0.81,160.4,-9999.0,'1111122,1111122,1111122' 
DISL,ioos:station:DISL:DISL:1,2012-07-03T10:00:00Z,30.2513,-88.0778,9.68,0.67,202.3,-9999.0,'1111122,1111122,1111122' 
DISL,ioos:station:DISL:DISL:1,2012-07-03T10:30:00Z,30.2513,-88.0778,9.68,0.72,251.4,-9999.0,'1111122,1111122,1111122' 
DISL,ioos:station:DISL:DISL:1,2012-07-03T11:00:00Z,30.2513,-88.0778,9.68,0.8,280.9,-9999.0,'1111122,1111122,1111122' 
DISL,ioos:station:DISL:DISL:1,2012-07-03T11:30:00Z,30.2513,-88.0778,9.68,0.57,279.6,-9999.0,'1111122,1111122,1111122' 
DISL,ioos:station:DISL:DISL:1,2012-07-03T12:00:00Z,30.2513,-88.0778,9.68,1.29,297.3,-9999.0,'1111122,1111122,1111122' 
DISL,ioos:station:DISL:DISL:1,2012-07-03T12:30:00Z,30.2513,-88.0778,9.68,3.19,335.6,-9999.0,'1111122,1111122,1111122' 
DISL,ioos:station:DISL:DISL:1,2012-07-03T13:00:00Z,30.2513,-88.0778,9.68,2.8,328.3,-9999.0,'1111122,1111122,1111122' 
DISL,ioos:station:DISL:DISL:1,2012-07-03T13:30:00Z,30.2513,-88.0778,9.68,2.91,332.6,-9999.0,'1111122,1111122,1111122' 
DISL,ioos:station:DISL:DISL:1,2012-07-03T14:00:00Z,30.2513,-88.0778,9.68,3.32,343.7,-9999.0,'1111122,1111122,1111122' 
DISL,ioos:station:DISL:DISL:1,2012-07-03T14:30:00Z,30.2513,-88.0778,9.68,3.13,352.9,-9999.0,'1111122,1111122,1111122' 
DISL,ioos:station:DISL:DISL:1,2012-07-03T15:00:00Z,30.2513,-88.0778,9.68,2.97,1.96,-9999.0,'1111122,1111122,1111122' 
DISL,ioos:station:DISL:DISL:1,2012-07-03T15:30:00Z,30.2513,-88.0778,9.68,2.43,26.2,-9999.0,'1111122,1111122,1111122' 
DISL,ioos:station:DISL:DISL:1,2012-07-03T16:00:00Z,30.2513,-88.0778,9.68,1.57,31.28,-9999.0,'1111122,1111122,1111122' 
DISL,ioos:station:DISL:DISL:1,2012-07-03T16:30:00Z,30.2513,-88.0778,9.68,1.95,36.3,-9999.0,'1111122,1111122,1111122' 
DISL,ioos:station:DISL:DISL:1,2012-07-03T17:00:00Z,30.2513,-88.0778,9.68,1.77,35.73,-9999.0,'1111122,1111122,1111122' 
DISL,ioos:station:DISL:DISL:1,2012-07-03T17:30:00Z,30.2513,-88.0778,9.68,1.24,32.6,-9999.0,'1111122,1111122,1111122' 
DISL,ioos:station:DISL:DISL:1,2012-07-03T18:00:00Z,30.2513,-88.0778,9.68,0.77,34.15,-9999.0,'1111122,1111122,1111122' 
DISL,ioos:station:DISL:DISL:1,2012-07-03T18:30:00Z,30.2513,-88.0778,9.68,1.58,100.6,-9999.0,'1111122,1111122,1111122' 
DISL,ioos:station:DISL:DISL:1,2012-07-03T19:00:00Z,30.2513,-88.0778,9.68,2.22,151.0,-9999.0,'1111122,1111122,1111122' 
DISL,ioos:station:DISL:DISL:1,2012-07-03T19:30:00Z,30.2513,-88.0778,9.68,2.44,182.7,-9999.0,'1111122,1111122,1111122' 
DISL,ioos:station:DISL:DISL:1,2012-07-03T20:00:00Z,30.2513,-88.0778,9.68,3.17,193.2,-9999.0,'1111122,1111122,1111122' 
DISL,ioos:station:DISL:DISL:1,2012-07-03T20:30:00Z,30.2513,-88.0778,9.68,3.23,197.0,-9999.0,'1111122,1111122,1111122' 
DISL,ioos:station:DISL:DISL:1,2012-07-03T21:00:00Z,30.2513,-88.0778,9.68,3.56,211.3,-9999.0,'1111122,1111122,1111122' 
DISL,ioos:station:DISL:DISL:1,2012-07-03T21:30:00Z,30.2513,-88.0778,9.68,2.95,214.7,-9999.0,'1111122,1111122,1111122' 
DISL,ioos:station:DISL:DISL:1,2012-07-03T22:00:00Z,30.2513,-88.0778,9.68,1.24,276.2,-9999.0,'1111122,1111122,1111122' 
DISL,ioos:station:DISL:DISL:1,2012-07-03T22:30:00Z,30.2513,-88.0778,9.68,7.31,60.99,-9999.0,'1111122,1111122,1111122' 
DISL,ioos:station:DISL:DISL:1,2012-07-03T23:00:00Z,30.2513,-88.0778,9.68,9.46,100.6,-9999.0,'1111122,1111122,1111122' 
DISL,ioos:station:DISL:DISL:1,2012-07-03T23:30:00Z,30.2513,-88.0778,9.68,3.72,139.6,-9999.0,'1111122,1111122,1111122' 
DISL,ioos:station:DISL:DISL:1,2012-07-04T00:00:00Z,30.2513,-88.0778,9.68,3.37,152.0,-9999.0,'1111122,1111122,1111122' 
DISL,ioos:station:DISL:DISL:1,2012-07-04T00:30:00Z,30.2513,-88.0778,9.68,3.67,108.0,-9999.0,'1111122,1111122,1111122' 
DISL,ioos:station:DISL:DISL:1,2012-07-04T01:00:00Z,30.2513,-88.0778,9.68,1.8,91.2,-9999.0,'1111122,1111122,1111122' 
DISL,ioos:station:DISL:DISL:1,2012-07-04T01:30:00Z,30.2513,-88.0778,9.68,0.4,229.2,-9999.0,'1111122,1111122,1111122' 
DISL,ioos:station:DISL:DISL:1,2012-07-04T02:00:00Z,30.2513,-88.0778,9.68,1.23,221.4,-9999.0,'1111122,1111122,1111122' 
DISL,ioos:station:DISL:DISL:1,2012-07-04T02:30:00Z,30.2513,-88.0778,9.68,1.61,206.5,-9999.0,'1111122,1111122,1111122' 
DISL,ioos:station:DISL:DISL:1,2012-07-04T03:00:00Z,30.2513,-88.0778,9.68,1.02,202.2,-9999.0,'1111122,1111122,1111122' 
DISL,ioos:station:DISL:DISL:1,2012-07-04T03:30:00Z,30.2513,-88.0778,9.68,1.72,171.8,-9999.0,'1111122,1111122,1111122' 
DISL,ioos:station:DISL:DISL:1,2012-07-04T04:00:00Z,30.2513,-88.0778,9.68,2.26,132.1,-9999.0,'1111122,1111122,1111122' 
DISL,ioos:station:DISL:DISL:1,2012-07-04T04:30:00Z,30.2513,-88.0778,9.68,5.46,88.3,-9999.0,'1111122,1111122,1111122' 
DISL,ioos:station:DISL:DISL:1,2012-07-04T05:00:00Z,30.2513,-88.0778,9.68,5.82,89.0,-9999.0,'1111122,1111122,1111122' 
DISL,ioos:station:DISL:DISL:1,2012-07-04T05:30:00Z,30.2513,-88.0778,9.68,4.0,91.9,-9999.0,'1111122,1111122,1111122' 
DISL,ioos:station:DISL:DISL:1,2012-07-04T06:00:00Z,30.2513,-88.0778,9.68,3.95,104.2,-9999.0,'1111122,1111122,1111122' 
DISL,ioos:station:DISL:DISL:1,2012-07-04T06:30:00Z,30.2513,-88.0778,9.68,3.73,113.3,-9999.0,'1111122,1111122,1111122' 
DISL,ioos:station:DISL:DISL:1,2012-07-04T07:00:00Z,30.2513,-88.0778,9.68,3.2,126.8,-9999.0,'1111122,1111122,1111122' 
DISL,ioos:station:DISL:DISL:1,2012-07-04T07:30:00Z,30.2513,-88.0778,9.68,2.91,101.9,-9999.0,'1111122,1111122,1111122' 
DISL,ioos:station:DISL:DISL:1,2012-07-04T08:00:00Z,30.2513,-88.0778,9.68,2.0,82.2,-9999.0,'1111122,1111122,1111122' 
DISL,ioos:station:DISL:DISL:1,2012-07-04T08:30:00Z,30.2513,-88.0778,9.68,2.3,98.8,-9999.0,'1111122,1111122,1111122' 
DISL,ioos:station:DISL:DISL:1,2012-07-04T09:00:00Z,30.2513,-88.0778,9.68,1.59,112.4,-9999.0,'1111122,1111122,1111122' 
DISL,ioos:station:DISL:DISL:1,2012-07-04T09:30:00Z,30.2513,-88.0778,9.68,0.66,122.5,-9999.0,'1111122,1111122,1111122' 
DISL,ioos:station:DISL:DISL:1,2012-07-04T10:00:00Z,30.2513,-88.0778,9.68,0.44,138.4,-9999.0,'1111122,1111122,1111122' 
DISL,ioos:station:DISL:DISL:1,2012-07-04T10:30:00Z,30.2513,-88.0778,9.68,0.26,101.1,-9999.0,'1111122,1111122,1111122' 
DISL,ioos:station:DISL:DISL:1,2012-07-04T11:00:00Z,30.2513,-88.0778,9.68,0.0,0.0,-9999.0,'1114422,1114422,1111122' 
DISL,ioos:station:DISL:DISL:1,2012-07-04T11:30:00Z,30.2513,-88.0778,9.68,0.12,97.2,-9999.0,'1111122,1111122,1111122' 
DISL,ioos:station:DISL:DISL:1,2012-07-04T12:00:00Z,30.2513,-88.0778,9.68,1.16,74.7,-9999.0,'1111122,1111122,1111122' 
DISL,ioos:station:DISL:DISL:1,2012-07-04T12:30:00Z,30.2513,-88.0778,9.68,1.67,101.7,-9999.0,'1111122,1111122,1111122' 
DISL,ioos:station:DISL:DISL:1,2012-07-04T13:00:00Z,30.2513,-88.0778,9.68,0.83,44.87,-9999.0,'1111122,1111122,1111122' 
DISL,ioos:station:DISL:DISL:1,2012-07-04T13:30:00Z,30.2513,-88.0778,9.68,1.67,69.9,-9999.0,'1111122,1111122,1111122' 
DISL,ioos:station:DISL:DISL:1,2012-07-04T14:00:00Z,30.2513,-88.0778,9.68,2.16,98.7,-9999.0,'1111122,1111122,1111122' 
DISL,ioos:station:DISL:DISL:1,2012-07-04T14:30:00Z,30.2513,-88.0778,9.68,2.34,112.2,-9999.0,'1111122,1111122,1111122' 
DISL,ioos:station:DISL:DISL:1,2012-07-04T15:00:00Z,30.2513,-88.0778,9.68,2.89,109.0,-9999.0,'1111122,1111122,1111122' 
DISL,ioos:station:DISL:DISL:1,2012-07-04T15:30:00Z,30.2513,-88.0778,9.68,3.09,126.8,-9999.0,'1111122,1111122,1111122' 
DISL,ioos:station:DISL:DISL:1,2012-07-04T16:00:00Z,30.2513,-88.0778,9.68,2.6,134.7,-9999.0,'1111122,1111122,1111122' 
DISL,ioos:station:DISL:DISL:1,2012-07-04T16:30:00Z,30.2513,-88.0778,9.68,3.66,170.6,-9999.0,'1111122,1111122,1111122' 
DISL,ioos:station:DISL:DISL:1,2012-07-04T17:00:00Z,30.2513,-88.0778,9.68,3.61,255.9,-9999.0,'1111122,1111122,1111122' 
DISL,ioos:station:DISL:DISL:1,2012-07-04T17:30:00Z,30.2513,-88.0778,9.68,2.71,249.6,-9999.0,'1111122,1111122,1111122' 
DISL,ioos:station:DISL:DISL:1,2012-07-04T18:00:00Z,30.2513,-88.0778,9.68,2.3,262.4,-9999.0,'1111122,1111122,1111122' 
DISL,ioos:station:DISL:DISL:1,2012-07-04T18:30:00Z,30.2513,-88.0778,9.68,7.58,307.8,-9999.0,'1111122,1111122,1111122' 
DISL,ioos:station:DISL:DISL:1,2012-07-04T19:00:00Z,30.2513,-88.0778,9.68,5.69,300.6,-9999.0,'1111122,1111122,1111122' 
DISL,ioos:station:DISL:DISL:1,2012-07-04T19:30:00Z,30.2513,-88.0778,9.68,5.12,326.8,-9999.0,'1111122,1111122,1111122' 
DISL,ioos:station:DISL:DISL:1,2012-07-04T20:00:00Z,30.2513,-88.0778,9.68,2.77,274.8,-9999.0,'1111122,1111122,1111122' 
DISL,ioos:station:DISL:DISL:1,2012-07-04T20:30:00Z,30.2513,-88.0778,9.68,3.23,306.4,-9999.0,'1111122,1111122,1111122' 
DISL,ioos:station:DISL:DISL:1,2012-07-04T21:00:00Z,30.2513,-88.0778,9.68,2.73,338.0,-9999.0,'1111122,1111122,1111122' 
DISL,ioos:station:DISL:DISL:1,2012-07-04T21:30:00Z,30.2513,-88.0778,9.68,1.23,356.9,-9999.0,'1111122,1111122,1111122' 
DISL,ioos:station:DISL:DISL:1,2012-07-04T22:00:00Z,30.2513,-88.0778,9.68,1.14,43.73,-9999.0,'1111122,1111122,1111122' 
DISL,ioos:station:DISL:DISL:1,2012-07-04T22:30:00Z,30.2513,-88.0778,9.68,0.73,38.05,-9999.0,'1111122,1111122,1111122' 
DISL,ioos:station:DISL:DISL:1,2012-07-04T23:00:00Z,30.2513,-88.0778,9.68,2.89,325.7,-9999.0,'1111122,1111122,1111122' 
DISL,ioos:station:DISL:DISL:1,2012-07-04T23:30:00Z,30.2513,-88.0778,9.68,1.61,267.0,-9999.0,'1111122,1111122,1111122' 
DISL,ioos:station:DISL:DISL:1,2012-07-05T00:00:00Z,30.2513,-88.0778,9.68,2.99,300.3,-9999.0,'1111122,1111122,1111122' 
DISL,ioos:station:DISL:DISL:1,2012-07-05T00:30:00Z,30.2513,-88.0778,9.68,2.1,306.7,-9999.0,'1111122,1111122,1111122' 
DISL,ioos:station:DISL:DISL:1,2012-07-05T01:00:00Z,30.2513,-88.0778,9.68,0.64,289.6,-9999.0,'1111122,1111122,1111122' 
DISL,ioos:station:DISL:DISL:1,2012-07-05T01:30:00Z,30.2513,-88.0778,9.68,0.01,264.1,-9999.0,'1111122,1111122,1111122' 
DISL,ioos:station:DISL:DISL:1,2012-07-05T02:00:00Z,30.2513,-88.0778,9.68,1.03,223.8,-9999.0,'1111122,1111122,1111122' 
DISL,ioos:station:DISL:DISL:1,2012-07-05T02:30:00Z,30.2513,-88.0778,9.68,1.03,214.6,-9999.0,'1111122,1111122,1111122' 
DISL,ioos:station:DISL:DISL:1,2012-07-05T03:00:00Z,30.2513,-88.0778,9.68,0.73,242.9,-9999.0,'1111122,1111122,1111122' 
DISL,ioos:station:DISL:DISL:1,2012-07-05T03:30:00Z,30.2513,-88.0778,9.68,1.08,234.0,-9999.0,'1111122,1111122,1111122' 
DISL,ioos:station:DISL:DISL:1,2012-07-05T04:00:00Z,30.2513,-88.0778,9.68,1.64,238.1,-9999.0,'1111122,1111122,1111122' 